sat.trackr.live / text

‹ back to catalog

NUSAT-38 (MARIA AGNESI)

NORAD 56202 · 2023-054AA

PAYLOAD ACTIVE UNKNOWN

§ Identity

Operator
Country
ARGN
Launch date
2023-04-15
Launch site
AFWTR
Launch vehicle
Mass (kg)
RCS (m²)

External: N2YO · Heavens-Above · Gunter

§ Orbital elements

Epoch: 2026-09-21T21:57:43.206624Z

Period
92.59 min
Inclination
97.2962°
Eccentricity
0.0012768
Mean motion
15.55229086 rev/d
Perigee alt
392.8 km
Apogee alt
410.1 km
Semi-major
6,779.6 km
B*
4.4324e-4
RAAN
176.8921°
Arg perigee
70.1829°
Mean anomaly
290.0801°
Rev number
19,351

§ Raw data

NUSAT-38 (MARIA AGNESI)1 56202U 23054AA  26264.91508341  .00030036  00000+0  44324-3 0  99912 56202  97.2962 176.8921 0012768  70.1829 290.0801 15.55229086193519

JSON: /api/v1/satellites/56202 · /tle

For live sub-satellite position, see the globe view (requires WebGL).

§ Visibility from observer

Set your observer location to see the next 7 days of passes ≥ 10°. The values pass through the URL so the page stays shareable.

No JS? Fill the form by hand. The geolocation button needs JavaScript.